Weather History for Payson, AZ

Change the Weather History Date:

Sunday, August 25, 2013

  Actual Average Record
Temperature  
Mean Temperature 70 °F -  
Max Temperature 75 °F 89 °F 91 °F (2011)
Min Temperature 64 °F 55 °F 59 °F (2012)
Cooling Degree Days 4    
Growing Degree Days 20 (Base 50)    
Moisture  
Dew Point 61 °F    
Average Humidity 78    
Maximum Humidity 94    
Minimum Humidity 53    
Precipitation  
Precipitation 0.00 in - - ()
Sea Level Pressure  
Sea Level Pressure 30.23 in    
Wind  
Wind Speed 3 mph (North)    
Max Wind Speed 13 mph    
Max Gust Speed 16 mph    
Visibility 10 miles    
Events Rain , Thunderstorm    
Averages and records for this station are not official NWS values.
T = Trace of Precipitation, MM = Missing Value Source: NWS Daily Summary

Daily Weather History Graph

Daily Weather History Graph

Search for Another Location

Airport:

Trip Planner

Search our weather history database for the weather conditions in past years. The results will help you decide how hot, cold, wet, or windy it might be!

Date:

Astronomy

Aug. 25, 2013 Rise Set
Actual Time 5:53 AM MST 7:00 PM MST
Civil Twilight 5:28 AM MST 7:25 PM MST
Nautical Twilight 4:57 AM MST 7:56 PM MST
Astronomical Twilight 4:25 AM MST 8:28 PM MST
Moon 9:50 PM MST (8/25) 10:43 AM MST (8/25)
Length of Visible Light 13h 57m
Length of Day
13h 06m
Waning Gibbous, 75% of the Moon is Illuminated
Aug 25
Waning Gibbous
Aug 28
Last Quarter
Sep 5
New
Sep 12
First Quarter
Sep 19
Full

Hourly Weather History & Observations

Time (MST) Temp. Dew Point Humidity Pressure Visibility Wind Dir Wind Speed Gust Speed Precip Events Conditions
12:15 AM 66.2 °F 60.8 °F 83% 30.20 in 10.0 mi NE 3.5 mph - N/A   Overcast
12:35 AM 64.4 °F 62.6 °F 94% 30.20 in 10.0 mi Calm Calm - N/A   Light Drizzle
12:55 AM 64.4 °F 62.6 °F 94% 30.21 in 10.0 mi NNE 5.8 mph - N/A   Light Drizzle
1:15 AM 64.4 °F 62.6 °F 94% 30.20 in 10.0 mi NE 4.6 mph - N/A   Light Drizzle
1:35 AM 64.4 °F 62.6 °F 94% 30.20 in 10.0 mi NE 3.5 mph - N/A Rain Light Rain
1:55 AM 64.4 °F 62.6 °F 94% 30.20 in 10.0 mi Calm Calm - N/A   Light Drizzle
2:15 AM 64.4 °F 60.8 °F 88% 30.20 in 10.0 mi Calm Calm - N/A   Mostly Cloudy
2:35 AM 64.4 °F 62.6 °F 94% 30.21 in 10.0 mi Calm Calm - N/A   Overcast
2:55 AM 66.2 °F 60.8 °F 83% 30.21 in 10.0 mi Variable 3.5 mph - N/A   Overcast
3:15 AM 64.4 °F 60.8 °F 88% 30.21 in 10.0 mi Variable 4.6 mph - N/A   Overcast
3:35 AM 66.2 °F 60.8 °F 83% 30.21 in 10.0 mi Variable 3.5 mph - N/A   Overcast
3:55 AM 64.4 °F 60.8 °F 88% 30.21 in 10.0 mi Variable 3.5 mph - N/A   Overcast
4:15 AM 64.4 °F 60.8 °F 88% 30.21 in 10.0 mi Calm Calm - N/A   Overcast
4:35 AM 64.4 °F 60.8 °F 88% 30.21 in 10.0 mi Calm Calm - N/A   Overcast
4:55 AM 64.4 °F 60.8 °F 88% 30.21 in 10.0 mi Calm Calm - N/A   Overcast
5:15 AM 64.4 °F 60.8 °F 88% 30.21 in 10.0 mi Calm Calm - N/A   Overcast
5:35 AM 64.4 °F 60.8 °F 88% 30.22 in 10.0 mi Calm Calm - N/A   Overcast
5:55 AM 64.4 °F 60.8 °F 88% 30.23 in 8.0 mi Calm Calm - N/A   Mostly Cloudy
6:15 AM 64.4 °F 60.8 °F 88% 30.23 in 10.0 mi Calm Calm - N/A   Mostly Cloudy
6:35 AM 64.4 °F 62.6 °F 94% 30.24 in 8.0 mi Calm Calm - N/A   Light Drizzle
6:55 AM 64.4 °F 60.8 °F 88% 30.24 in 10.0 mi Calm Calm - N/A   Overcast
7:15 AM 64.4 °F 60.8 °F 88% 30.24 in 10.0 mi Calm Calm - N/A   Overcast
7:35 AM 64.4 °F 60.8 °F 88% 30.25 in 10.0 mi Calm Calm - N/A   Overcast
7:55 AM 64.4 °F 60.8 °F 88% 30.25 in 10.0 mi Calm Calm - N/A   Overcast
8:15 AM 66.2 °F 62.6 °F 88% 30.25 in 10.0 mi ENE 3.5 mph - N/A   Mostly Cloudy
8:35 AM 66.2 °F 62.6 °F 88% 30.25 in 10.0 mi Calm Calm - N/A   Mostly Cloudy
8:55 AM 66.2 °F 62.6 °F 88% 30.26 in 10.0 mi Variable 4.6 mph - N/A   Mostly Cloudy
9:15 AM 68.0 °F 60.8 °F 78% 30.26 in 10.0 mi Calm Calm - N/A   Mostly Cloudy
9:35 AM 68.0 °F 60.8 °F 78% 30.27 in 10.0 mi Variable 4.6 mph - N/A   Mostly Cloudy
9:55 AM 68.0 °F 60.8 °F 78% 30.27 in 10.0 mi Variable 3.5 mph - N/A   Overcast
10:15 AM 69.8 °F 60.8 °F 73% 30.27 in 10.0 mi Calm Calm - N/A   Overcast
10:35 AM 69.8 °F 60.8 °F 73% 30.27 in 10.0 mi Variable 4.6 mph - N/A   Overcast
10:55 AM 69.8 °F 60.8 °F 73% 30.27 in 10.0 mi Variable 4.6 mph - N/A   Overcast
11:15 AM 69.8 °F 60.8 °F 73% 30.27 in 10.0 mi Calm Calm - N/A   Overcast
11:35 AM 71.6 °F 60.8 °F 69% 30.26 in 10.0 mi Calm Calm - N/A   Overcast
11:55 AM 73.4 °F 60.8 °F 65% 30.26 in 10.0 mi Variable 3.5 mph - N/A   Overcast
12:15 PM 73.4 °F 60.8 °F 65% 30.26 in 10.0 mi SSW 4.6 mph - N/A   Overcast
12:35 PM 73.4 °F 60.8 °F 65% 30.25 in 10.0 mi Calm Calm - N/A   Mostly Cloudy
12:55 PM 75.2 °F 60.8 °F 61% 30.25 in 10.0 mi Calm Calm - N/A   Overcast
1:15 PM 75.2 °F 59.0 °F 57% 30.24 in 10.0 mi Variable 4.6 mph - N/A   Mostly Cloudy
1:35 PM 75.2 °F 59.0 °F 57% 30.24 in 10.0 mi Variable 3.5 mph 11.5 mph N/A   Scattered Clouds
1:55 PM 73.4 °F 62.6 °F 69% 30.23 in 10.0 mi WNW 8.1 mph - N/A   Mostly Cloudy
2:15 PM 71.6 °F 62.6 °F 73% 30.23 in 10.0 mi West 10.4 mph 16.1 mph N/A   Overcast
2:35 PM 69.8 °F 60.8 °F 73% 30.23 in 10.0 mi West 12.7 mph - N/A   Mostly Cloudy
2:55 PM 68.0 °F 59.0 °F 73% 30.23 in 10.0 mi NW 9.2 mph - N/A   Clear
3:15 PM 69.8 °F 59.0 °F 68% 30.23 in 10.0 mi NW 8.1 mph - N/A   Partly Cloudy
3:35 PM 69.8 °F 59.0 °F 68% 30.22 in 10.0 mi NW 8.1 mph - N/A   Mostly Cloudy
3:55 PM 71.6 °F 60.8 °F 69% 30.22 in 10.0 mi NNW 4.6 mph - N/A   Mostly Cloudy
4:15 PM 71.6 °F 59.0 °F 64% 30.21 in 10.0 mi Variable 6.9 mph - N/A   Partly Cloudy
4:35 PM 71.6 °F 57.2 °F 60% 30.21 in 10.0 mi NW 6.9 mph - N/A   Clear
4:55 PM 73.4 °F 59.0 °F 61% 30.20 in 10.0 mi NNW 5.8 mph - N/A   Partly Cloudy
5:15 PM 75.2 °F 59.0 °F 57% 30.19 in 10.0 mi NW 6.9 mph - N/A   Partly Cloudy
5:35 PM 73.4 °F 55.4 °F 53% 30.20 in 10.0 mi North 5.8 mph - N/A   Scattered Clouds
5:55 PM 73.4 °F 55.4 °F 53% 30.20 in 10.0 mi NNW 4.6 mph - N/A   Overcast
6:15 PM 73.4 °F 55.4 °F 53% 30.20 in 10.0 mi NNW 3.5 mph - N/A   Overcast
6:35 PM 73.4 °F 59.0 °F 61% 30.21 in 10.0 mi West 4.6 mph - N/A   Overcast
6:55 PM 71.6 °F 62.6 °F 73% 30.21 in 10.0 mi Calm Calm - N/A   Overcast
7:15 PM 71.6 °F 60.8 °F 69% 30.21 in 10.0 mi Calm Calm - N/A   Overcast
7:35 PM 71.6 °F 60.8 °F 69% 30.22 in 10.0 mi Calm Calm - N/A   Overcast
7:55 PM 71.6 °F 62.6 °F 73% 30.23 in 9.0 mi Calm Calm - N/A   Overcast
8:15 PM 69.8 °F 62.6 °F 78% 30.25 in 10.0 mi ENE 6.9 mph - N/A   Light Drizzle
8:35 PM 66.2 °F 60.8 °F 83% 30.26 in 10.0 mi ENE 10.4 mph - N/A Thunderstorm Overcast
8:55 PM 66.2 °F 60.8 °F 83% 30.26 in 10.0 mi NNE 4.6 mph - N/A   Overcast
9:15 PM 66.2 °F 60.8 °F 83% 30.26 in 10.0 mi Calm Calm - N/A   Light Drizzle
9:35 PM 66.2 °F 60.8 °F 83% 30.26 in 9.0 mi NNE 3.5 mph - N/A   Light Drizzle
9:55 PM 66.2 °F 60.8 °F 83% 30.25 in 10.0 mi NNE 4.6 mph - N/A   Overcast
10:15 PM 66.2 °F 60.8 °F 83% 30.25 in 10.0 mi NNE 3.5 mph - N/A   Light Drizzle
10:35 PM 66.2 °F 60.8 °F 83% 30.25 in 10.0 mi NE 4.6 mph - N/A   Overcast
10:55 PM 66.2 °F 60.8 °F 83% 30.25 in 10.0 mi NE 3.5 mph - N/A   Overcast
11:15 PM 68.0 °F 59.0 °F 73% 30.25 in 10.0 mi Calm Calm - N/A   Overcast
11:35 PM 66.2 °F 60.8 °F 83% 30.24 in 10.0 mi NNE 4.6 mph - N/A   Light Drizzle
11:55 PM 66.2 °F 60.8 °F 83% 30.24 in 10.0 mi NE 4.6 mph - N/A   Overcast